ITAMSAT (IO-26) (22826 NORAD) Tracking and Keplerian Element Data

This shows tracking and keplerian element data for the satellite.

Feedback or suggestion? Click here.




ElementValue
Catalog22826
NameITAMSAT (IO-26)
Epoch Orbit41241
Epoch Day297.92498355
Epoch Year2020
RAAN303.563
Inclination98.9208
Eccentricity0.0008865
Argument of Perigee358.0784
Mean Anonmoly2.0362
Mean Motion14.30432097
Decay Rate1E-08
L11 22826U 93061D 20297.92498355 .00000001 00000-0 18291-4 0 9990
L22 22826 98.9208 303.5630 0008865 358.0784 2.0362 14.30432097412418

Live tracking and technical data element details for ITAMSAT (IO-26) (NORAD 22826). ITAMSAT (IO-26) can be tracked NOW for your location showing map with azimuth and elevation plus other details from your city location.

Track the satellite on the map from your city or location and see movement details for azimuth, elevation, latitude, longitude, range, height, and movement on the map or in text.







IsCatalogInMostPopularTable: catalog: 22826, numindb: 258
Update: records affected: 1



GetName: 22826 ITAMSAT (IO-26)

Hit Count: updated at: Sun, 25 Oct 2020 07:22:27 GMT